Theta_e
345 344 345 349 352 356 363 361 354 359 357 342 342 349 348 353 355 355 358 355 356 357 352 351 350 352 353 353 355 354 353 357 357 354 354 351 348 351 351 350 351 351 352 352 353 354 354 352 351 352 353 353 351 349 351 352 352 351 352 353 352 350 349 348 350 351 350 349 348 349 348 345 344 342 341 343 344 342 341 341 342 341 340 340 340 340 339 339 340 340 341 342 344 345 345 344 343
346 346 347 353 356 363 370 361 352 353 348 340 342 349 348 355 359 358 359 357 358 355 352 351 351 352 352 352 353 353 352 353 352 351 352 349 350 351 350 351 351 352 352 353 353 354 354 354 352 352 352 353 351 350 350 352 352 352 352 352 351 350 348 346 349 349 348 348 347 349 348 345 344 341 342 344 344 343 343 342 342 340 339 339 339 340 339 339 339 340 341 343 344 344 345 346 345
347 347 350 357 361 365 371 361 348 346 344 342 344 349 353 361 362 358 357 355 354 350 350 351 352 351 352 357 355 355 354 350 349 350 350 351 352 351 351 352 352 352 352 353 354 354 354 354 353 352 352 353 352 351 351 352 352 352 352 351 350 350 348 346 346 346 347 347 346 346 346 345 343 342 343 343 343 343 341 340 339 338 337 338 339 339 340 341 341 342 342 343 344 344 344 345 346
347 349 353 361 370 370 374 370 358 347 342 343 344 349 356 359 359 356 353 352 350 350 352 354 355 349 353 360 354 353 354 350 350 350 350 351 351 351 352 353 353 353 352 353 354 354 354 354 353 353 353 352 350 351 351 352 352 352 352 352 350 349 347 346 345 345 345 346 346 345 345 344 343 343 342 341 341 339 337 337 336 336 338 338 338 339 340 341 342 341 341 341 342 343 344 345 345
348 354 357 363 376 372 368 364 359 349 341 347 347 349 356 356 355 353 350 350 349 351 352 353 356 350 350 353 350 354 354 350 350 350 351 352 351 352 352 353 354 353 352 353 353 354 354 354 354 355 355 353 352 352 353 353 352 352 352 352 352 349 347 346 345 345 345 345 344 343 343 343 343 342 341 340 338 336 335 335 335 337 338 338 339 340 341 341 340 339 339 340 341 343 345 346 345
350 356 357 361 367 364 361 346 339 341 340 351 351 350 355 352 351 350 349 349 349 351 350 351 353 352 352 350 349 352 350 350 351 351 352 352 352 352 352 352 353 353 352 353 353 354 353 354 355 356 355 353 353 353 354 353 353 352 352 352 351 350 348 346 346 346 346 346 344 342 341 341 342 341 341 340 338 336 335 335 336 337 339 340 341 340 341 340 339 339 340 341 342 343 345 347 346
352 359 361 368 365 356 358 341 333 338 338 347 351 350 350 348 349 349 351 349 348 348 348 351 349 353 356 352 351 350 348 350 350 351 352 352 352 352 352 352 353 353 353 353 353 353 353 353 354 355 354 354 353 352 352 352 353 353 352 352 352 351 348 347 348 347 347 346 346 345 342 341 341 341 340 339 337 335 335 336 338 340 341 342 341 341 340 340 339 339 340 341 342 344 345 346 346
353 360 362 371 364 349 348 336 334 343 344 347 348 348 348 347 347 348 351 349 351 349 349 352 350 356 357 352 355 352 350 351 350 351 352 353 353 352 352 352 352 353 353 353 353 352 352 352 352 353 353 353 353 352 351 350 352 352 351 351 351 351 349 348 349 348 347 347 348 347 344 342 341 341 340 339 337 336 337 339 341 342 342 342 341 342 341 340 339 337 338 339 342 344 345 346 345
352 355 358 363 355 344 340 335 338 346 348 349 347 349 348 346 346 348 351 351 353 353 352 354 353 358 355 353 356 352 351 352 350 351 352 353 353 353 353 351 352 352 353 353 353 352 352 352 351 351 352 352 353 352 351 350 350 350 350 351 350 349 348 348 348 349 348 348 348 346 344 343 342 341 341 340 340 339 339 340 341 342 341 341 342 341 340 337 336 336 338 340 341 343 343 344 343
354 356 357 360 353 338 333 335 342 347 348 348 349 350 348 346 347 348 351 352 354 355 354 353 355 357 354 355 357 353 353 352 351 352 353 354 354 353 353 351 351 352 353 353 353 353 353 353 351 350 351 351 351 351 351 351 350 350 351 350 348 347 347 348 349 349 348 348 348 346 345 344 343 343 343 342 342 341 340 340 339 340 340 340 340 338 337 336 336 336 339 342 343 345 347 347 346
362 360 352 355 350 333 330 335 338 344 347 347 348 347 348 347 350 351 352 354 355 356 354 353 355 355 354 356 356 353 352 352 352 353 353 354 353 354 353 352 352 352 353 353 354 354 354 354 352 351 350 350 350 350 351 350 351 351 350 349 348 347 347 347 348 348 347 348 347 346 346 345 345 345 344 343 342 340 339 338 338 338 338 338 337 336 337 337 337 337 340 345 346 347 349 348 349
364 359 356 358 349 337 335 336 336 341 343 345 348 347 349 348 352 354 353 356 356 355 353 353 354 353 358 359 355 352 352 352 352 353 353 354 353 354 354 353 353 352 353 353 354 354 354 354 353 351 351 350 350 350 350 350 350 349 348 347 347 347 347 347 348 348 347 347 346 346 347 347 347 346 344 341 340 339 338 338 338 337 337 336 337 338 340 340 342 344 344 346 346 345 346 346 346
361 355 359 355 346 344 338 336 338 342 343 346 348 347 350 350 353 353 353 356 354 355 354 352 352 354 359 358 354 351 352 353 352 353 353 354 353 354 354 353 352 352 352 353 354 354 354 354 354 353 354 352 351 351 350 350 349 348 347 348 348 348 348 348 348 348 346 345 345 346 347 346 345 343 341 340 339 338 338 338 337 337 336 338 342 344 346 348 350 349 346 344 344 344 345 345 346
357 355 363 352 343 346 337 337 341 341 344 347 348 348 350 351 351 351 353 355 353 354 353 350 350 356 358 356 355 352 352 353 353 353 353 354 353 353 353 353 353 351 352 352 353 354 354 355 354 354 354 352 351 351 350 349 349 349 348 349 349 349 348 348 348 347 346 345 344 345 345 343 342 342 340 338 338 337 337 336 336 336 337 343 349 351 351 353 352 347 344 345 345 344 344 346 348
353 353 366 355 342 342 337 339 340 340 343 347 350 349 350 350 349 350 350 354 355 351 350 351 350 356 358 355 356 352 351 353 353 353 354 354 353 353 353 353 353 352 352 352 353 353 354 354 353 354 353 351 350 349 349 348 349 349 349 350 350 349 349 349 348 347 347 347 345 344 344 342 340 340 339 337 336 336 336 336 336 336 337 343 348 350 350 353 351 346 346 347 347 347 347 348 349
349 345 357 354 339 337 338 340 340 342 344 348 351 349 351 349 346 349 348 352 354 349 351 355 350 353 355 353 354 351 351 353 353 354 354 355 354 354 354 353 353 353 352 352 353 353 353 353 352 352 351 349 348 348 347 347 349 349 349 349 349 349 349 350 350 349 350 349 346 344 342 342 340 338 338 336 336 335 335 335 336 338 339 340 343 347 349 351 349 346 347 348 349 349 348 349 350
340 339 350 348 340 335 337 341 340 343 345 349 350 348 352 349 347 349 348 350 351 350 352 354 350 350 351 352 352 350 352 353 353 354 355 355 355 354 354 353 353 354 353 353 354 354 354 352 350 351 350 349 349 348 347 347 348 348 348 348 348 348 350 350 351 350 350 350 346 343 340 341 339 336 337 336 336 335 336 337 340 343 345 345 346 348 349 349 348 347 347 348 349 349 348 348 346
336 346 347 341 343 340 339 341 338 343 346 347 348 349 350 350 351 348 348 349 350 352 353 353 353 352 351 352 351 351 353 354 354 355 354 355 354 354 354 353 354 355 353 352 353 353 353 352 350 349 348 348 348 348 347 346 349 349 348 349 348 348 350 350 350 350 348 347 346 342 339 339 337 336 336 335 336 336 339 342 345 348 348 348 348 348 347 347 348 347 346 347 348 348 346 345 343
340 352 348 348 352 344 341 339 337 343 345 345 347 348 348 350 351 348 350 351 352 356 354 354 356 355 352 352 352 353 353 354 355 354 354 354 353 353 353 353 353 354 353 352 351 351 352 351 350 349 348 347 347 347 347 347 349 351 349 348 349 348 349 348 347 347 345 344 344 343 340 339 337 335 335 335 336 339 343 345 347 349 350 350 348 347 344 343 345 345 344 345 346 345 344 344 344
345 348 350 360 355 342 341 338 338 342 342 346 348 348 349 349 349 347 349 351 353 356 355 358 359 357 353 352 353 353 354 354 355 354 354 353 353 352 352 353 353 353 353 352 351 350 351 351 350 349 348 348 347 347 348 348 348 351 349 348 348 347 348 346 344 343 342 342 342 342 341 339 338 336 335 335 337 342 345 347 348 349 350 349 347 345 343 341 342 343 344 345 346 344 343 344 344
343 345 353 359 348 342 342 337 338 340 341 345 347 349 352 349 347 347 349 353 355 353 353 357 358 356 354 353 353 354 354 354 355 354 353 352 352 352 351 352 352 353 352 352 352 350 350 350 349 348 348 348 348 348 348 348 349 349 348 347 345 344 344 343 341 341 341 341 341 342 342 342 340 337 336 336 339 343 346 348 349 349 349 348 347 344 342 342 342 343 345 346 347 344 342 341 342
340 344 350 350 345 344 342 338 338 339 341 346 347 350 351 348 348 347 349 354 355 350 349 352 355 355 354 353 353 354 354 354 355 353 352 352 351 352 351 352 352 352 352 352 351 350 349 349 349 348 348 347 347 347 347 348 348 348 347 345 344 343 343 342 342 342 342 343 343 343 344 344 343 340 338 336 340 345 347 348 349 349 348 347 346 343 342 342 342 343 345 347 346 342 341 342 341
339 341 343 346 344 343 341 338 338 340 343 346 346 349 349 349 350 347 348 351 350 347 348 351 353 353 353 354 354 354 354 354 354 353 352 351 351 351 351 351 351 351 351 351 350 349 349 348 348 349 348 347 346 347 346 347 347 346 347 346 344 343 343 343 343 344 345 345 344 344 344 344 343 343 341 338 340 345 348 348 349 349 347 346 345 343 342 342 342 342 344 347 345 341 341 343 343
336 337 340 343 342 343 341 339 339 341 344 344 345 349 349 351 352 348 348 350 349 349 350 351 353 354 353 354 354 354 354 354 354 353 352 351 351 351 351 351 350 351 351 351 350 349 348 348 347 348 348 347 346 347 347 346 346 346 347 347 344 343 344 344 344 344 344 344 343 342 343 343 344 344 343 341 343 346 348 349 349 349 348 345 344 343 343 345 345 344 346 347 344 341 342 343 344
334 334 339 339 339 342 340 339 339 341 342 343 347 350 349 350 350 348 349 351 350 350 351 352 353 354 354 354 354 355 354 354 354 354 352 351 351 351 351 350 350 351 351 351 350 349 349 347 347 348 347 347 346 348 348 347 346 346 347 347 344 343 344 344 344 344 343 342 342 342 344 346 347 347 347 346 346 348 348 349 349 349 348 346 344 343 344 347 348 346 347 348 345 344 344 344 344
331 335 340 339 340 341 340 339 340 341 341 344 348 350 350 348 348 349 351 351 350 350 351 353 354 354 355 355 354 355 355 354 354 353 353 352 352 351 351 351 351 351 350 351 351 350 349 347 347 346 346 346 347 347 348 348 347 347 347 346 345 344 344 344 344 343 342 342 342 344 346 347 349 349 349 349 349 349 349 349 349 349 348 346 344 343 344 348 349 347 347 347 347 346 346 344 343
333 338 341 341 341 341 340 341 343 344 342 345 349 350 351 348 350 354 352 351 351 351 352 353 355 355 355 355 355 355 354 354 354 354 353 352 353 352 352 352 351 352 351 351 352 350 349 348 347 346 346 346 347 347 347 347 347 346 346 345 344 344 344 345 345 343 343 343 345 346 347 348 349 350 350 350 349 349 349 349 350 349 348 346 345 344 345 348 349 347 346 347 347 348 346 344 343
336 342 344 343 345 343 343 345 347 347 346 346 348 351 351 348 353 357 352 351 351 352 354 353 355 355 355 355 355 355 354 355 355 354 354 353 353 353 353 353 352 353 353 352 352 351 350 349 348 347 347 347 346 346 346 346 346 346 346 346 344 343 344 345 345 344 344 346 347 349 349 350 350 351 351 350 349 349 349 350 350 349 347 346 344 344 346 348 347 346 346 346 346 346 345 343 341
339 344 347 347 348 347 346 347 348 348 349 348 348 352 353 353 355 355 351 351 352 353 354 353 354 355 355 355 355 355 355 354 355 354 355 354 353 354 353 353 353 353 354 353 352 352 351 350 348 347 347 347 345 345 345 346 347 348 348 348 346 344 344 345 345 346 346 347 348 350 351 352 351 352 351 350 350 349 349 349 350 351 348 346 345 345 346 347 346 346 346 345 345 344 343 341 337
343 343 347 349 348 348 348 348 350 350 350 348 347 348 352 357 355 352 353 353 353 354 355 354 354 355 354 355 355 355 354 353 355 354 354 354 353 354 354 354 354 354 354 354 353 352 352 351 348 346 345 345 345 345 345 346 348 350 351 350 348 346 345 344 346 347 348 349 350 352 352 352 352 352 351 349 349 350 350 350 351 351 349 345 346 347 347 348 348 347 347 346 345 344 341 337 334
346 343 346 351 341 343 350 349 352 353 349 349 350 348 352 360 355 351 353 353 354 356 355 355 354 355 354 355 354 354 354 353 353 354 354 354 353 354 354 354 355 355 355 354 354 352 352 352 350 347 345 344 345 345 346 348 350 351 351 351 350 349 348 347 347 347 349 351 352 353 353 352 350 351 350 348 348 350 351 350 350 349 348 346 347 348 348 349 348 347 346 344 343 341 339 338 338
346 339 338 345 339 341 350 349 351 353 350 349 346 348 355 360 354 351 353 353 354 356 356 355 355 355 354 354 354 354 353 352 352 353 353 353 353 353 354 354 355 355 355 355 355 354 353 353 351 350 348 346 345 347 348 349 351 352 351 350 350 351 351 350 349 349 350 352 353 353 353 351 348 349 350 348 348 349 350 350 349 348 348 348 349 349 349 348 348 346 344 343 341 340 340 340 340
345 341 333 336 338 340 347 347 348 350 352 349 345 353 362 362 353 349 352 354 354 356 356 356 355 355 355 354 354 354 353 353 351 351 352 352 352 353 354 354 354 354 355 355 355 356 355 354 353 352 350 348 347 348 349 351 351 352 351 351 351 352 352 352 351 351 352 352 353 353 352 350 347 347 348 349 349 350 350 349 346 346 348 349 349 349 348 348 347 344 343 343 343 342 343 342 341
336 340 336 335 337 340 341 346 347 347 351 352 353 364 366 359 353 349 351 353 354 356 356 355 355 354 355 354 354 354 353 353 351 350 350 351 351 352 353 353 354 354 354 355 355 355 356 355 355 354 352 350 349 349 351 352 353 352 352 352 352 353 353 352 352 353 353 354 354 353 352 351 349 348 349 351 352 351 349 347 345 347 349 350 350 349 348 347 347 345 345 345 345 344 344 343 343
331 331 333 331 335 339 339 344 346 347 351 352 355 362 363 356 352 350 350 352 353 355 354 353 353 353 354 354 354 353 353 352 351 349 349 350 350 351 352 352 353 353 354 355 354 354 355 355 355 354 352 351 351 351 351 353 353 353 353 353 353 354 353 352 353 353 354 353 354 354 354 354 353 352 351 352 352 349 347 346 346 348 349 349 349 348 347 347 347 347 346 345 344 344 344 344 344
337 333 335 331 331 337 342 345 345 346 350 353 353 355 361 357 352 351 350 350 352 352 352 351 350 352 352 352 352 352 352 351 349 348 348 348 349 350 351 352 352 352 353 354 354 355 355 355 354 354 353 352 352 352 352 353 354 354 354 354 354 354 352 352 352 352 351 351 353 355 356 355 354 352 350 350 349 346 346 347 347 347 347 347 347 346 345 345 345 346 345 344 343 343 343 343 344
341 334 333 333 331 334 342 345 344 347 349 350 352 355 360 357 352 352 350 350 352 351 352 351 349 350 351 351 351 351 351 351 348 347 347 348 348 349 350 350 351 351 352 353 354 355 354 354 354 354 353 353 353 353 353 354 355 355 355 355 354 353 352 352 351 350 349 350 352 354 355 354 352 350 348 348 347 345 346 347 345 345 344 344 344 343 341 341 342 343 343 343 343 342 342 342 344
338 332 330 329 328 334 342 344 343 346 347 347 353 358 358 356 353 351 350 350 351 350 351 350 349 349 349 350 350 350 350 348 348 346 345 347 347 348 349 349 350 350 351 352 353 354 354 354 354 354 353 353 354 354 354 355 356 355 355 355 354 352 352 352 351 350 350 351 353 354 353 352 350 349 348 347 346 346 347 344 341 340 341 343 343 340 338 338 340 343 343 342 342 343 342 342 343
333 332 328 325 328 334 336 343 347 344 345 348 354 355 353 354 354 352 351 351 350 349 349 348 349 349 349 349 348 348 349 349 349 347 345 346 347 347 348 348 349 350 351 352 353 353 353 354 354 353 353 354 354 354 355 356 356 356 355 355 354 353 353 352 351 351 352 353 353 352 351 350 350 350 349 347 346 346 345 342 340 340 342 343 341 338 338 337 338 340 341 342 342 343 343 342 341
330 333 328 324 332 331 326 336 347 345 346 350 355 356 355 355 356 354 351 350 351 349 349 348 348 349 348 348 348 348 348 349 349 347 346 346 347 347 348 348 349 349 350 351 352 353 353 354 353 353 353 354 354 355 356 356 356 356 356 355 354 353 353 353 353 353 354 353 352 351 350 350 350 349 348 346 345 345 344 343 343 343 342 341 339 338 339 338 338 339 339 342 343 342 342 342 341
329 332 329 329 334 331 329 337 344 345 344 348 354 351 352 357 356 357 353 350 352 350 350 350 348 348 348 347 347 347 348 348 349 348 347 346 347 347 347 348 348 349 349 350 352 353 353 353 352 353 353 354 354 355 355 355 356 356 356 355 355 354 354 354 354 353 353 352 351 350 349 350 351 349 347 345 345 344 343 342 341 340 339 339 339 339 339 340 340 339 339 341 342 342 342 342 341
325 328 332 335 339 337 339 343 341 337 335 344 348 337 343 359 356 355 355 352 353 352 352 351 350 349 349 349 348 347 347 347 348 348 346 346 347 348 348 348 348 349 349 350 351 352 352 352 352 353 353 354 354 353 353 354 355 356 355 355 355 354 355 354 354 353 352 351 349 347 348 349 351 349 347 345 344 342 339 339 338 338 338 339 339 339 340 340 340 339 339 340 340 341 341 340 339
322 329 333 335 340 339 340 341 337 333 333 343 346 335 341 354 351 352 356 353 353 353 352 351 350 350 349 349 348 347 347 347 348 348 347 346 347 348 348 348 349 349 349 350 350 351 352 353 352 353 353 354 353 352 353 354 355 355 355 356 355 355 354 354 353 352 351 349 346 345 347 348 350 350 347 343 340 338 337 337 337 337 338 338 339 338 338 339 339 338 338 338 337 339 340 339 339
325 333 332 332 337 339 340 338 334 336 339 342 346 341 337 339 344 350 354 354 354 353 351 350 349 349 349 349 349 348 348 347 348 348 348 347 347 348 348 349 349 349 349 350 350 351 352 352 352 352 353 352 352 352 353 353 354 355 355 356 355 355 354 354 353 351 350 348 346 346 346 346 350 349 344 339 337 336 337 337 336 337 337 337 337 337 337 338 338 337 337 338 337 337 338 338 338
335 335 329 329 332 336 341 336 332 337 336 334 341 341 332 335 349 354 351 352 353 352 350 349 348 348 349 349 349 349 348 348 348 348 348 347 346 347 348 349 349 349 350 350 350 351 351 351 351 352 352 352 352 351 352 353 354 355 355 355 355 355 355 354 353 351 350 347 344 346 345 346 347 344 339 337 336 337 337 337 337 337 336 336 336 336 337 338 338 337 336 336 336 336 337 337 337
334 329 328 331 333 336 339 337 334 334 331 331 337 337 329 336 349 350 347 349 349 351 350 347 347 347 347 348 348 349 349 348 348 348 348 347 346 347 348 349 350 349 350 350 350 351 351 352 352 352 352 352 352 351 352 354 354 355 356 356 356 356 356 354 352 351 348 344 343 344 344 344 342 338 336 336 335 337 337 338 338 336 335 335 335 335 335 336 336 335 335 335 335 336 336 336 336
328 328 329 331 338 345 349 349 340 331 331 332 333 335 330 332 343 346 346 349 349 349 349 347 347 345 345 347 347 348 348 348 348 349 348 347 347 348 347 349 350 350 351 350 351 351 351 352 352 352 352 352 352 351 352 354 355 356 356 356 356 356 355 353 351 349 346 342 341 342 341 340 337 336 335 334 335 337 337 338 337 334 333 334 334 333 334 335 335 334 334 334 334 334 335 335 335
327 334 331 324 331 337 338 340 333 327 332 334 332 335 331 328 337 346 347 347 349 348 348 348 347 345 344 344 345 347 348 348 348 349 349 349 349 348 348 349 350 350 351 351 351 352 352 352 352 353 352 352 352 351 352 354 355 355 355 354 354 355 354 352 351 348 343 340 339 338 338 336 335 335 335 336 337 337 337 337 335 333 332 333 333 333 334 334 334 335 334 334 334 334 334 334 335
328 334 326 318 322 322 321 327 329 327 331 333 332 334 333 331 337 345 347 345 345 346 346 347 345 345 344 343 344 346 347 347 348 349 349 350 351 349 348 349 350 351 351 351 352 352 353 353 352 353 352 352 352 352 353 354 355 355 354 353 353 354 353 351 350 348 343 339 337 336 336 335 336 336 336 336 336 337 338 337 335 333 332 331 332 333 333 333 333 333 334 334 335 334 334 334 334
325 326 321 317 320 317 319 327 329 327 328 328 331 335 334 334 341 346 345 341 343 344 343 345 345 344 344 343 343 344 346 347 348 349 349 351 352 350 349 350 351 351 352 352 352 352 353 353 353 353 352 352 353 353 353 354 355 354 353 352 353 353 352 349 347 345 341 338 336 336 335 335 337 336 335 334 334 335 338 337 335 334 332 330 331 332 332 332 332 333 333 334 334 334 334 334 333
324 331 327 320 322 320 319 325 324 323 325 324 329 337 335 331 339 351 348 341 341 342 343 344 345 346 344 343 344 344 346 347 348 349 349 351 351 349 349 351 351 352 352 352 352 353 353 353 354 353 353 353 354 354 354 354 354 354 352 352 352 353 351 346 342 342 340 336 335 335 335 335 336 336 335 334 333 334 337 337 334 333 332 331 331 331 331 332 332 332 332 333 333 333 334 334 334
323 332 326 318 326 325 320 325 330 327 324 324 328 338 343 338 339 354 361 354 345 341 344 344 345 348 346 345 346 345 346 347 348 350 350 351 350 350 350 350 351 352 352 353 353 353 353 353 353 353 353 354 355 354 354 353 354 353 353 352 351 352 349 342 339 339 337 335 334 334 334 334 335 335 336 335 333 333 336 336 334 333 332 332 331 331 331 331 331 332 332 332 333 333 333 334 334
323 323 320 322 329 328 321 321 327 323 319 325 329 330 335 335 337 352 362 357 350 346 345 342 344 348 348 347 346 346 347 347 349 350 351 352 350 350 351 350 351 352 352 354 353 353 354 353 354 354 354 354 354 354 353 353 354 353 353 352 351 352 347 340 337 337 335 334 333 333 332 333 335 336 336 335 333 334 335 335 334 333 333 332 332 331 332 332 332 332 332 332 332 332 332 333 332
325 318 322 326 325 332 332 322 321 321 319 325 326 324 324 324 336 359 357 349 354 356 348 342 344 348 347 346 345 346 348 347 348 350 351 351 350 350 351 351 351 352 352 353 353 354 354 354 354 354 354 355 354 353 353 353 354 353 353 352 351 350 345 338 336 335 334 333 332 332 332 334 336 336 336 334 334 334 335 334 333 332 332 332 332 332 332 332 332 332 332 332 332 332 331 331 331
326 323 327 326 319 323 327 321 321 321 321 326 324 324 326 324 335 354 350 347 354 355 351 345 344 348 345 343 345 345 348 348 349 350 350 352 351 350 351 351 352 352 352 353 353 354 355 355 355 355 354 355 353 353 353 353 353 353 352 351 351 348 342 337 336 334 333 333 332 332 332 334 336 336 335 334 333 333 333 333 332 330 331 333 332 332 333 332 332 331 331 331 331 331 331 331 330
324 326 325 325 323 322 322 322 323 320 323 329 324 321 327 331 339 346 345 350 350 349 355 350 343 344 342 341 344 344 347 349 349 349 350 351 351 350 350 351 352 352 352 353 353 354 355 355 355 355 354 354 353 352 352 352 352 351 349 350 350 347 341 337 335 334 334 334 333 332 332 333 334 334 334 333 332 332 331 331 331 331 332 332 332 332 333 332 332 331 330 330 330 330 330 330 330
320 321 319 320 322 323 322 324 325 324 327 331 326 322 330 342 346 345 345 351 349 349 357 352 343 342 340 341 343 344 346 348 348 349 349 350 350 350 351 351 351 352 352 353 353 353 354 354 354 354 354 353 353 352 352 352 350 348 347 349 350 346 340 337 335 334 334 334 333 332 331 332 334 334 333 332 331 330 330 331 331 332 333 333 332 333 333 332 331 330 330 329 329 329 329 329 330
322 319 320 321 321 321 318 318 323 324 325 329 328 320 327 344 345 342 343 347 348 349 351 349 345 341 340 341 342 343 346 346 347 349 348 349 350 350 351 351 351 352 352 353 353 353 353 354 354 354 354 353 352 352 351 350 347 345 345 347 349 346 340 336 335 334 334 333 333 332 332 332 333 332 331 330 330 330 331 332 333 333 333 333 333 333 332 331 330 330 329 329 329 329 329 329 330
Wind_Speed
12 11 8 5 3 1 2 1 2 2 3 3 2 2 2 1 3 4 6 6 3 0 2 5 5 4 4 6 7 6 6 3 1 2 2 4 12 12 9 11 12 16 18 17 18 20 21 22 23 22 23 23 25 25 24 24 23 22 22 23 23 22 22 24 23 21 22 21 20 18 18 18 17 16 15 15 15 14 14 13 12 12 11 10 10 9 9 9 8 7 6 6 5 5 5 6 6
13 11 8 6 2 1 1 2 2 2 4 3 3 1 1 3 4 4 4 4 3 2 6 8 7 7 7 9 7 4 7 7 3 3 4 12 15 10 11 13 15 19 18 18 20 21 21 22 23 23 22 21 23 25 24 23 22 22 23 23 23 22 22 23 22 22 23 21 20 18 18 18 17 16 15 15 15 14 13 13 12 12 11 10 9 8 8 7 7 6 6 5 5 4 4 5 5
13 12 10 6 2 2 1 3 3 2 4 3 2 2 1 3 3 4 3 5 5 7 9 7 6 5 5 6 4 3 4 5 7 7 6 13 12 10 16 17 18 19 18 19 20 22 22 22 23 23 22 20 22 23 24 23 22 22 23 23 23 22 21 21 21 22 22 20 19 18 17 17 16 16 15 15 15 14 13 13 11 10 10 9 8 7 6 6 6 6 5 5 4 4 4 4 4
12 11 8 4 2 3 2 3 2 4 4 3 1 3 1 5 5 6 5 7 5 4 5 4 4 3 5 7 3 4 4 3 6 7 6 8 10 16 21 19 18 18 18 19 20 21 22 22 22 23 22 21 21 21 23 22 22 22 22 22 22 21 21 21 20 20 20 19 17 17 17 16 16 15 15 15 14 13 12 11 9 9 8 7 6 6 5 5 4 4 4 5 4 3 3 3 3
13 11 5 2 1 2 1 2 2 4 3 4 2 1 3 7 8 8 5 5 3 4 3 3 3 1 5 6 1 3 3 3 5 6 6 8 16 23 21 20 20 20 20 20 20 20 20 21 21 22 21 21 21 21 22 22 22 22 22 21 20 20 20 20 20 19 18 17 16 16 16 16 16 15 14 13 12 11 10 9 8 7 6 6 5 5 4 3 3 3 3 4 4 4 4 3 4
14 10 3 3 2 1 1 2 3 3 2 4 4 3 5 8 8 9 7 6 6 6 4 3 5 4 5 3 2 3 3 5 5 6 10 14 20 22 21 23 24 22 21 21 21 20 20 20 20 21 21 21 21 21 22 22 22 22 21 20 18 18 18 19 18 17 16 16 15 15 14 15 14 13 12 11 10 8 7 7 6 5 5 4 3 3 2 2 2 3 3 3 4 5 5 5 5
14 6 2 3 2 1 2 3 3 2 1 2 6 7 7 7 8 10 8 5 6 6 5 4 6 8 5 1 3 5 4 7 5 9 16 19 20 20 21 23 23 23 22 21 22 21 20 19 19 20 21 21 21 21 22 22 22 21 20 19 18 17 17 17 16 15 14 14 13 13 13 13 12 11 10 9 7 6 5 5 4 4 3 3 2 1 2 3 4 4 4 4 4 5 5 5 5
10 3 1 3 1 2 3 3 1 2 2 2 5 8 8 8 7 7 7 3 3 3 4 4 4 6 3 2 3 5 9 11 9 16 22 21 19 20 20 21 21 22 23 22 22 22 21 19 19 19 21 21 21 22 22 22 21 20 20 18 18 17 16 15 14 13 13 12 12 12 12 11 11 9 8 7 5 5 5 4 4 3 2 1 0 2 3 4 6 6 5 5 5 5 5 5 5
5 3 1 2 1 3 3 2 2 1 2 4 4 6 8 8 6 6 8 5 5 5 4 3 1 6 4 4 4 2 9 14 16 21 23 20 19 20 19 20 21 22 23 24 23 22 21 20 19 19 19 20 22 23 23 22 21 21 19 18 18 17 16 15 14 13 13 12 11 11 10 10 9 8 7 6 5 5 5 4 4 3 2 1 1 3 4 6 7 7 6 6 6 6 6 6 7
4 3 1 1 2 4 3 2 1 1 2 4 5 7 7 6 5 6 9 8 6 5 4 5 6 8 8 5 3 1 8 17 21 22 21 19 19 20 20 20 21 22 23 23 22 21 21 20 19 18 19 19 21 22 22 22 21 20 18 18 18 17 16 15 15 14 13 12 11 11 10 10 9 8 7 6 6 5 6 5 4 3 2 1 2 4 5 7 7 7 7 7 8 8 8 9 9
3 2 2 2 3 4 3 2 2 2 2 4 4 5 5 5 7 6 9 9 5 5 5 7 8 8 8 4 2 3 12 20 21 20 20 19 20 22 22 20 20 21 22 23 21 20 20 19 18 18 19 20 20 21 21 20 20 19 18 18 17 16 16 15 15 14 13 12 12 11 10 10 9 8 7 7 6 6 6 5 4 3 2 2 3 5 6 7 8 8 9 9 10 10 10 10 11
2 1 2 3 2 3 4 4 4 4 3 4 4 3 4 6 8 7 10 9 6 7 4 3 6 6 6 3 1 6 13 18 20 20 19 19 20 22 22 21 20 20 22 22 21 20 19 18 18 18 17 19 19 20 19 18 18 17 17 16 16 15 15 15 14 14 13 13 12 11 10 9 9 8 7 7 7 6 6 5 4 3 3 3 5 6 6 7 8 9 9 9 10 11 11 10 10
2 3 3 2 2 4 4 4 4 5 3 3 4 3 5 5 8 10 9 9 8 7 3 3 7 5 4 3 3 5 9 16 20 19 19 19 19 20 21 20 20 21 22 21 20 20 20 18 18 17 16 16 17 17 17 16 16 16 15 14 14 14 15 15 14 14 13 12 12 10 9 9 8 8 7 7 6 6 5 5 4 4 4 4 5 6 6 7 8 8 10 10 11 12 12 12 11
3 2 4 2 1 4 5 4 4 6 3 4 4 4 4 1 6 11 11 11 5 3 6 7 8 6 4 4 4 3 8 17 20 19 18 18 18 19 19 19 20 21 21 20 20 19 19 18 17 16 15 16 16 16 16 15 15 14 14 14 14 14 14 14 13 13 12 12 11 10 9 8 8 7 7 6 6 6 5 5 5 5 5 5 6 7 7 7 7 9 11 12 12 12 12 13 13
4 1 4 3 2 3 3 4 6 6 4 5 5 6 3 2 5 7 9 10 2 2 7 6 4 5 4 6 5 7 12 20 20 19 18 17 17 17 17 18 18 19 20 19 19 19 18 18 18 17 16 17 16 16 15 14 13 13 13 13 13 13 13 12 12 12 11 11 10 9 8 8 8 7 6 6 6 5 5 6 6 6 6 7 8 8 9 6 7 10 11 13 14 13 12 12 12
4 2 3 2 3 4 3 3 5 5 4 5 7 6 6 4 4 4 3 6 7 6 4 4 2 2 6 5 6 13 20 22 20 19 18 17 17 17 17 17 18 18 18 19 18 19 18 18 18 17 17 17 17 16 15 14 13 12 12 12 12 12 12 11 11 11 10 10 9 9 8 8 7 7 6 6 6 6 6 7 7 8 9 9 9 10 11 8 8 11 11 12 13 12 10 9 9
3 2 1 1 3 5 4 5 5 5 4 7 7 5 7 5 2 3 5 8 11 8 2 3 1 2 8 7 14 22 23 22 21 19 18 18 17 16 16 17 17 17 18 18 18 19 18 18 18 18 18 18 17 16 16 15 13 12 12 11 11 11 11 11 11 11 10 9 9 9 8 8 8 8 7 7 7 7 7 8 9 9 10 11 10 11 12 10 10 11 10 10 10 9 8 9 9
3 2 2 2 4 5 6 9 7 6 8 10 9 8 10 9 5 5 7 7 7 6 4 4 5 6 10 15 23 25 24 23 22 20 18 17 17 16 16 17 18 17 18 19 19 19 19 19 19 19 19 19 18 17 16 15 14 13 13 12 12 11 11 11 11 10 10 10 9 9 9 9 8 8 7 7 7 8 8 9 10 10 10 10 10 11 11 10 9 10 10 10 10 9 10 10 11
4 3 3 3 5 4 5 10 8 8 11 11 9 8 8 8 9 6 6 7 6 7 5 5 8 8 11 19 24 23 24 24 22 21 18 17 17 17 16 17 18 18 19 20 20 20 19 20 20 20 20 19 19 18 17 16 15 13 13 13 13 12 12 11 12 11 11 10 10 9 10 9 8 8 8 8 8 8 9 10 10 10 10 10 11 11 10 9 8 8 9 8 9 9 10 10 9
4 3 2 5 6 4 3 9 9 9 13 13 10 8 5 5 7 6 8 10 7 7 7 8 8 9 12 15 20 23 22 21 21 20 18 17 17 18 18 19 20 20 21 21 21 21 21 21 21 21 20 20 20 19 18 17 16 15 14 14 13 13 13 12 13 12 12 11 11 10 10 9 8 9 9 10 10 10 10 10 10 10 10 9 10 10 9 9 7 6 6 6 6 6 6 7 8
2 4 5 5 5 5 4 10 10 9 13 14 11 8 7 6 5 7 12 10 4 7 10 11 14 14 14 15 17 21 20 19 20 18 17 17 17 17 17 18 19 20 20 20 21 22 22 22 22 21 21 21 20 20 19 18 17 16 15 15 14 14 13 13 13 13 12 11 11 11 10 9 9 11 11 11 11 11 11 10 10 10 10 9 9 9 9 9 8 6 5 5 4 3 4 5 6
2 4 6 5 5 5 6 10 10 10 11 12 13 10 9 7 5 10 15 10 6 9 10 11 16 17 17 17 18 18 17 17 17 17 18 18 19 18 18 18 18 18 20 21 23 24 24 24 23 22 22 21 21 20 19 18 18 17 15 15 15 14 14 13 13 13 12 12 11 11 11 11 11 12 12 12 12 12 11 11 10 10 10 9 9 9 10 9 9 8 6 5 3 1 3 6 7
3 4 5 6 6 5 7 9 11 12 12 13 14 10 9 8 5 10 13 6 3 7 10 11 14 19 20 18 17 16 16 16 17 19 20 20 21 21 21 22 21 21 21 22 24 25 25 25 24 23 23 22 21 20 20 19 18 17 16 15 15 15 14 14 14 14 13 13 12 12 12 12 12 12 13 13 13 13 11 11 11 11 10 10 10 9 9 9 9 9 8 6 4 3 4 7 9
4 4 4 7 7 7 10 12 12 14 16 14 12 10 12 12 8 9 8 1 2 8 11 11 14 19 20 17 15 15 15 16 19 22 23 23 24 24 23 23 24 23 23 24 25 26 26 26 25 24 24 23 22 22 21 20 19 18 17 16 16 15 14 15 14 14 14 13 12 12 13 13 13 13 13 13 13 13 11 11 11 11 12 11 11 10 9 10 10 9 8 7 6 6 7 10 12
4 5 4 5 6 8 11 12 13 13 12 10 12 13 13 10 8 9 6 1 6 11 12 12 14 16 16 15 15 14 13 15 18 20 21 21 22 22 21 22 24 24 25 25 25 25 26 26 25 25 25 24 23 23 22 21 20 20 19 18 17 16 16 15 15 14 14 13 13 13 13 13 13 13 13 13 13 12 11 11 12 12 13 13 12 12 11 11 12 10 9 8 8 9 10 12 15
6 6 4 5 6 9 12 12 13 11 8 10 13 10 7 5 7 5 3 5 9 12 13 13 14 15 14 13 14 13 13 15 17 19 20 20 20 20 21 23 23 24 25 25 24 25 25 25 25 26 25 25 24 23 23 22 21 21 20 19 18 17 17 15 15 15 14 14 13 13 14 14 14 14 14 13 13 12 11 12 12 13 13 13 13 13 13 14 13 11 11 10 10 11 12 14 16
4 4 2 5 7 8 12 12 10 8 8 12 15 9 6 7 6 3 3 8 12 13 14 13 14 14 13 13 12 12 13 16 19 19 19 19 20 22 23 23 23 24 24 23 24 25 25 25 25 25 25 25 24 24 23 22 22 21 20 19 19 18 17 16 16 16 16 16 15 14 15 15 15 15 15 15 15 14 13 13 13 13 13 13 14 14 15 15 14 12 12 12 13 13 15 16 16
3 8 7 6 8 8 9 12 10 8 5 9 13 8 6 5 3 4 8 11 13 15 14 13 13 13 12 13 11 11 12 16 19 18 18 20 21 23 23 23 24 23 23 24 25 25 25 25 25 25 25 24 24 24 23 22 22 21 20 19 19 19 18 18 17 17 17 16 15 15 16 16 16 16 16 16 16 15 14 14 13 14 13 13 14 15 15 15 14 13 12 13 14 15 16 15 13
4 8 8 6 8 8 6 8 9 9 5 8 13 8 3 6 5 4 10 11 13 14 14 13 12 11 11 11 10 9 11 16 18 17 19 21 21 22 23 24 25 23 24 25 25 25 25 26 25 26 25 25 25 24 24 23 22 21 20 20 19 19 19 19 18 18 18 17 16 16 16 17 17 17 16 15 15 15 15 15 15 15 14 13 14 14 14 14 13 12 12 12 13 13 13 11 10
4 4 6 6 7 4 3 3 7 8 7 12 12 3 6 8 5 5 11 12 14 12 13 13 11 10 9 9 9 9 11 14 16 18 21 21 22 23 23 23 25 24 24 23 25 26 26 25 25 26 26 26 26 25 24 23 22 21 20 20 19 19 20 20 20 18 17 17 17 17 17 17 17 17 16 16 16 16 16 16 16 15 14 13 13 13 12 11 11 10 10 11 10 9 9 8 9
5 4 4 4 4 5 4 3 8 8 7 10 6 2 7 7 5 8 11 13 16 14 12 12 11 10 9 9 9 9 11 14 18 20 22 23 23 24 24 24 25 25 24 24 26 27 26 26 25 26 26 26 26 25 24 23 22 21 20 20 19 19 20 20 20 19 17 17 17 17 18 18 17 17 16 17 17 17 17 15 14 13 12 11 11 10 10 9 8 8 9 9 7 6 6 7 9
2 4 3 1 3 5 5 4 8 9 9 7 2 2 4 4 7 9 10 13 15 14 13 13 11 11 11 9 10 9 10 14 18 21 22 24 24 25 26 25 25 26 26 26 25 26 26 26 26 25 25 26 26 25 24 23 21 20 20 19 19 19 20 20 19 18 18 17 18 18 18 18 17 17 18 18 18 18 16 13 11 10 10 10 9 9 8 6 7 7 6 6 7 6 7 7 8
2 2 5 5 4 4 4 3 5 7 10 7 2 3 2 2 8 10 11 13 13 13 13 13 12 12 11 10 10 9 9 10 13 18 22 24 25 26 27 27 27 28 28 27 26 26 26 27 26 26 26 26 26 26 25 24 23 22 21 20 20 20 20 19 19 18 18 18 18 18 17 18 18 18 18 18 19 17 14 11 9 7 8 8 8 7 6 5 5 5 4 5 6 8 8 8 9
3 2 4 4 4 6 5 4 5 4 9 8 3 4 3 3 10 11 12 14 13 12 12 13 12 11 10 10 10 10 9 10 10 16 22 24 25 27 28 28 29 29 29 28 28 28 28 28 28 27 27 26 26 26 26 25 24 23 22 21 21 20 20 19 19 19 19 19 18 17 17 17 18 18 18 19 18 14 11 10 8 5 6 6 6 6 6 6 4 5 5 5 6 8 9 9 10
5 4 4 2 3 6 8 7 8 9 9 8 4 4 4 5 10 12 12 14 13 12 13 12 12 11 10 10 10 10 11 11 12 18 24 25 26 27 28 28 29 29 29 30 29 29 28 28 28 28 28 28 28 27 27 26 25 25 24 23 22 22 21 20 19 19 19 18 18 17 17 18 19 18 17 17 15 12 9 7 5 4 5 5 5 5 6 6 5 6 8 7 7 8 9 9 9
9 7 6 7 6 8 10 5 6 12 10 8 7 6 6 8 12 13 12 13 12 11 11 10 10 11 10 9 10 10 11 12 15 21 25 26 27 28 28 28 28 29 30 30 30 29 29 29 29 29 29 29 28 28 28 27 25 25 25 24 23 22 21 20 19 18 18 18 17 17 17 17 18 15 14 15 13 9 7 5 5 5 5 4 4 4 4 4 5 7 7 7 7 8 8 8 8
10 6 5 7 7 7 7 2 3 9 8 7 6 4 6 11 13 14 13 12 11 11 11 11 11 10 10 11 11 11 12 13 16 21 24 26 28 28 28 28 28 28 29 29 30 30 30 30 30 30 29 29 29 28 28 27 26 24 23 24 24 22 21 20 19 19 18 18 17 17 16 15 16 12 10 11 11 9 7 7 6 5 5 5 5 4 2 3 4 5 6 6 7 7 7 7 7
9 7 5 5 5 5 3 1 3 7 6 5 4 5 6 8 11 12 12 13 14 15 14 14 13 12 10 11 13 12 11 10 11 15 20 24 26 27 28 27 27 28 28 29 30 31 31 31 31 31 30 30 30 29 28 27 27 26 24 24 24 22 21 21 20 19 18 17 16 16 15 14 13 10 7 8 10 10 10 9 7 6 7 6 5 4 3 4 4 4 5 6 6 6 6 5 5
7 5 5 5 4 3 2 2 3 6 4 3 4 5 3 4 7 10 12 15 14 14 14 13 13 12 11 12 13 12 11 9 9 11 16 21 24 26 26 26 28 29 29 31 31 32 32 32 32 31 31 31 31 30 29 29 28 26 25 23 22 21 20 20 19 18 16 16 15 15 14 13 11 9 8 9 11 12 11 10 9 8 8 7 6 4 4 5 5 5 5 6 6 6 4 3 3
6 5 6 4 4 5 5 3 5 4 1 2 5 3 2 1 5 7 11 12 9 9 11 10 11 13 14 14 12 12 13 12 11 11 13 18 22 24 25 27 28 29 29 30 31 32 32 33 33 33 33 32 31 30 30 29 27 25 24 22 20 19 18 17 17 17 16 15 15 15 15 13 11 10 12 13 13 13 13 11 9 8 8 7 6 5 5 6 6 5 5 6 6 5 2 2 2
5 5 7 4 5 8 6 5 6 3 2 2 6 4 4 4 7 8 9 9 8 8 10 10 10 12 12 12 12 13 14 13 13 12 12 15 19 23 26 28 28 28 29 31 32 33 34 35 35 34 34 33 32 31 29 28 27 24 22 20 17 16 16 14 15 17 17 16 16 16 15 14 13 13 15 15 14 13 12 10 8 8 8 8 7 6 6 6 5 4 4 4 4 3 2 1 0
4 5 8 9 9 8 6 10 9 4 2 3 5 2 5 4 9 10 8 9 11 8 10 13 12 12 11 11 12 13 13 13 13 13 13 14 18 22 25 27 28 28 31 33 35 35 35 36 36 35 35 34 32 30 29 28 27 25 23 21 18 16 16 15 16 17 16 16 16 15 14 15 15 15 15 15 13 11 10 8 8 8 8 8 8 6 5 4 4 3 3 2 1 1 1 0 1
4 6 9 10 10 9 10 13 10 5 4 5 6 5 5 4 6 11 9 10 13 10 11 15 14 13 12 12 13 13 13 12 12 13 13 14 18 20 22 26 29 30 33 34 34 35 36 36 36 36 35 34 32 30 29 29 28 26 25 24 22 20 19 18 17 15 14 15 15 14 14 16 17 16 15 14 13 11 10 9 8 8 7 7 7 6 5 5 5 4 4 2 1 0 1 0 2
4 6 10 11 9 10 12 12 8 5 3 2 5 4 1 4 6 9 11 10 11 12 13 14 14 15 14 14 14 14 14 14 12 13 13 15 19 22 25 28 31 33 34 34 34 35 36 36 36 36 35 34 33 31 30 29 28 27 26 25 24 23 21 19 17 15 14 14 14 14 15 16 16 16 15 14 12 11 11 10 8 8 7 7 7 7 7 6 6 6 5 3 2 1 0 1 2
5 6 10 10 9 10 11 10 7 4 5 1 4 3 2 6 5 3 10 11 12 16 18 18 16 17 16 16 16 16 16 15 14 14 14 16 21 26 29 30 32 33 33 33 35 36 36 36 36 36 36 34 33 32 31 30 29 28 27 26 25 24 22 20 17 16 16 15 15 16 15 15 16 15 14 13 12 12 11 11 9 8 8 8 8 8 7 7 7 6 5 4 3 2 1 1 1
5 7 8 6 5 5 7 7 4 4 4 6 7 6 5 5 4 3 7 10 14 17 18 18 17 17 16 17 17 17 15 13 14 14 14 18 24 28 30 30 31 32 32 34 35 35 36 36 36 36 36 35 34 33 32 30 29 28 28 27 26 25 23 21 17 17 17 17 17 17 17 16 16 15 14 12 12 12 12 12 10 8 7 8 8 7 7 7 7 6 5 4 3 2 1 0 1
6 8 7 7 6 4 3 1 3 4 1 6 9 11 9 5 4 4 7 11 17 17 14 15 16 16 17 17 17 17 14 12 13 14 14 19 24 26 26 27 30 31 32 33 34 35 35 36 36 37 37 36 35 34 32 31 30 30 29 28 27 26 24 22 19 19 20 19 19 19 18 17 17 15 14 13 13 13 13 13 10 8 7 7 7 7 7 6 6 5 4 4 3 2 2 1 1
7 6 5 4 2 4 4 5 3 3 4 7 9 10 8 7 6 6 11 16 17 17 15 16 18 19 19 17 16 16 14 13 13 14 14 15 17 19 23 26 28 30 31 32 33 34 35 36 37 37 37 36 35 34 33 32 31 31 30 29 28 27 25 24 23 23 23 22 22 21 20 19 17 16 15 15 15 14 14 13 10 8 7 7 7 7 6 6 6 5 5 4 4 3 3 2 2
5 5 6 5 1 1 1 1 0 3 6 6 6 8 5 8 9 8 12 14 14 15 17 17 18 19 19 18 16 14 13 14 14 13 13 12 12 15 21 25 27 29 31 33 33 33 34 36 37 38 38 36 35 35 34 33 32 32 32 31 29 28 26 26 26 25 25 24 24 23 22 21 19 18 17 16 15 15 14 14 11 8 7 6 7 7 6 5 6 6 5 5 4 4 3 3 2
5 6 6 5 3 2 3 3 0 2 5 4 5 9 4 5 7 10 14 17 16 17 17 15 13 15 18 17 16 14 14 15 14 13 14 13 13 16 22 26 27 29 32 34 34 34 35 35 37 38 38 37 36 36 35 34 33 33 33 31 30 29 27 27 27 26 26 25 24 23 22 21 21 20 18 16 15 14 14 14 11 8 7 6 6 6 6 5 5 5 5 5 4 4 4 4 3
6 5 6 6 5 5 4 3 3 4 3 2 2 6 5 3 4 8 13 15 14 13 13 10 6 8 11 11 11 13 14 14 13 14 15 14 16 20 24 26 28 31 33 34 34 35 35 36 38 39 39 38 37 37 36 35 35 35 34 32 31 30 28 27 27 26 26 26 24 23 22 21 21 20 18 16 14 13 14 14 12 9 8 6 5 6 5 5 5 5 4 4 5 5 5 6 5
5 3 6 5 7 6 2 3 6 5 2 1 2 3 5 5 6 7 4 6 8 10 9 8 7 6 9 9 11 12 13 13 13 14 14 15 18 22 25 26 28 30 31 33 34 35 37 38 39 41 41 39 37 37 37 37 36 35 34 33 31 30 29 28 27 26 26 25 23 22 21 21 20 19 18 16 14 13 14 14 13 11 10 8 6 6 5 6 6 5 5 5 5 6 6 7 7
3 3 4 5 6 7 3 2 2 3 2 2 2 3 4 2 6 7 3 5 7 7 8 11 10 8 10 11 12 12 13 14 14 14 15 15 17 21 25 27 28 29 30 33 36 38 40 40 39 40 41 38 36 37 38 37 37 36 35 34 32 31 30 29 28 27 26 24 22 21 20 20 19 19 18 16 15 14 15 15 13 11 11 9 8 8 6 6 7 7 7 6 6 6 7 8 9
6 4 7 3 3 4 3 2 1 2 3 4 2 5 4 1 3 6 3 6 10 8 9 10 7 9 12 12 12 14 15 15 15 15 15 15 16 21 26 28 31 33 34 37 40 41 41 40 39 39 39 39 40 39 39 38 38 37 35 34 32 31 30 29 27 25 24 23 22 21 20 19 19 18 17 15 15 15 16 15 13 12 11 11 11 10 9 8 9 9 9 9 9 9 10 10 10
3 4 6 5 3 2 1 3 2 1 3 4 3 4 4 4 5 5 4 10 13 11 8 7 8 12 14 13 13 15 15 13 13 13 13 14 15 20 25 28 31 34 36 38 40 38 37 37 37 37 39 40 38 36 35 37 37 36 33 32 31 30 30 28 26 24 23 23 22 20 18 18 18 17 15 15 15 16 15 15 14 13 13 13 13 12 11 10 10 10 10 11 11 11 12 12 11
2 3 4 2 3 5 3 4 4 4 4 3 3 3 3 6 6 7 10 13 13 11 8 9 12 15 14 12 12 13 13 13 13 13 14 15 16 21 28 31 32 35 37 39 38 36 36 37 36 37 38 36 33 32 34 36 35 32 30 31 31 31 31 29 26 24 23 22 20 18 17 18 17 16 15 15 15 15 15 15 15 15 14 14 14 13 13 13 12 12 11 12 12 12 13 13 13
3 4 5 2 1 3 2 2 4 4 4 4 3 3 5 7 6 9 13 13 12 12 11 11 12 13 13 12 12 12 13 13 14 14 15 15 16 22 29 32 33 35 36 35 34 34 36 36 35 36 36 34 33 33 35 35 33 29 29 32 34 34 33 31 27 25 23 21 17 17 18 17 17 16 16 16 16 16 16 16 16 16 16 15 14 14 14 14 14 13 13 12 12 13 14 14 15
8 6 6 6 4 4 3 4 1 2 3 5 5 4 6 7 6 10 13 11 11 13 13 12 12 13 13 12 13 14 13 14 15 14 15 14 14 19 26 28 29 29 30 31 31 33 34 34 36 36 35 35 35 36 37 34 30 27 29 34 37 38 35 31 26 23 21 19 16 17 17 17 16 16 16 16 17 18 18 18 18 18 16 15 15 15 14 14 14 14 13 13 13 14 15 16 16
Wind_Direction
169 173 169 149 152 189 317 340 36 352 68 77 18 54 23 46 112 106 119 134 124 21 51 80 85 90 100 109 125 104 36 7 139 125 133 141 145 147 152 147 136 134 134 132 133 132 135 142 146 148 150 150 150 151 148 146 148 148 148 150 151 150 148 145 141 139 141 143 144 143 142 144 144 143 141 143 146 149 149 147 146 144 144 146 147 146 141 136 132 125 117 107 96 80 67 59 52
165 164 153 135 111 24 345 32 66 10 56 63 355 44 358 14 63 91 128 132 111 109 91 89 87 80 90 107 123 106 37 22 75 97 96 131 135 138 145 140 135 133 132 134 135 134 135 140 146 148 149 149 149 149 147 147 149 149 148 149 149 148 147 146 142 141 143 144 146 145 145 146 146 146 146 151 154 154 154 153 151 148 148 151 150 148 143 136 129 123 117 105 92 75 63 55 47
160 156 146 132 40 43 49 33 90 75 68 82 353 316 35 63 59 56 73 89 111 121 105 101 92 71 74 79 55 46 54 45 87 97 114 135 131 139 142 134 133 132 134 139 138 137 138 141 144 144 146 150 149 147 146 147 149 149 147 147 148 147 144 143 140 140 141 142 145 146 147 148 149 151 154 158 161 161 160 158 154 152 150 151 150 145 135 126 120 115 106 93 81 61 53 49 33
152 149 138 123 26 33 35 38 110 105 103 132 31 301 84 107 103 85 86 98 120 111 94 97 68 10 68 80 48 58 81 78 93 102 123 144 145 146 142 135 137 138 140 142 140 139 139 139 141 142 146 152 149 144 144 146 149 148 147 146 148 146 142 141 140 140 139 140 144 147 149 151 154 157 160 163 165 165 163 161 158 153 148 147 144 136 128 121 114 101 90 83 73 49 40 40 18
144 139 119 55 52 42 49 75 97 91 148 168 128 248 123 125 121 109 99 86 69 47 66 96 78 8 71 78 55 84 90 96 101 101 109 141 148 147 145 143 144 145 145 142 141 139 137 139 140 142 144 146 145 143 143 146 149 148 147 147 148 144 142 142 142 143 141 142 147 151 153 155 159 162 164 166 168 168 164 164 159 150 144 142 136 127 120 113 97 74 65 63 55 34 23 22 9
140 130 71 34 96 130 117 97 98 85 189 172 134 178 149 137 131 119 97 66 50 51 56 73 106 112 79 55 59 88 152 127 110 113 124 142 148 150 151 147 146 146 145 143 142 140 139 143 142 140 139 140 144 146 146 148 149 149 148 147 146 143 143 144 143 143 143 148 152 155 157 159 164 166 167 170 172 170 164 161 151 144 142 134 121 106 86 65 28 30 36 28 21 13 9 7 360
140 128 29 44 80 67 99 108 137 122 33 162 148 158 157 146 136 123 108 85 61 49 53 84 118 107 77 50 75 51 94 120 120 137 141 146 150 152 153 148 147 147 144 144 144 142 141 143 142 140 139 139 143 147 149 149 149 149 148 147 147 146 146 145 145 147 150 155 157 159 162 165 168 170 173 176 177 172 162 154 144 144 137 125 111 70 23 358 346 355 2 358 355 351 354 354 344
134 115 19 79 44 22 85 88 130 166 64 97 142 148 153 148 143 124 111 103 96 79 82 111 118 94 60 35 85 41 74 109 129 142 145 145 150 152 154 150 147 147 146 146 144 142 140 140 141 141 143 142 145 148 150 151 150 151 150 150 151 151 150 149 151 155 157 159 157 159 163 168 172 173 178 180 180 174 162 154 151 152 140 144 112 3 345 333 330 333 340 346 344 337 338 337 326
97 49 47 87 124 44 65 37 28 156 106 115 127 138 146 144 143 123 107 90 107 107 94 127 80 97 106 63 92 48 78 115 131 140 145 144 151 154 155 152 146 147 147 146 144 143 142 141 141 142 143 144 148 149 150 151 153 154 153 154 154 154 154 155 157 159 159 157 156 158 163 168 171 174 178 180 179 173 168 169 168 167 171 194 307 325 319 318 319 326 336 342 340 335 330 327 320
42 29 106 79 90 71 65 13 21 85 107 127 132 140 147 142 124 116 112 107 105 95 86 85 72 105 121 93 90 62 112 131 133 140 148 147 154 157 156 152 148 147 148 147 144 145 143 143 143 144 144 144 146 148 150 151 153 155 155 156 155 156 157 159 160 159 158 156 157 160 164 168 170 173 175 177 177 179 181 181 179 181 196 238 301 309 313 317 319 323 330 336 334 331 326 323 322
34 351 119 77 70 103 140 115 109 111 109 107 124 146 142 134 113 100 107 105 82 93 116 88 88 113 108 96 68 109 134 139 139 144 153 154 157 161 158 153 150 150 150 149 146 147 145 144 145 146 146 144 145 147 149 151 151 153 154 154 155 156 158 161 160 159 159 158 161 162 164 166 168 171 175 180 184 189 190 188 191 203 231 274 301 308 312 315 320 326 332 335 328 321 319 318 319
70 281 88 92 115 153 165 141 133 121 123 125 154 173 138 140 122 118 118 114 109 114 139 106 132 137 95 91 105 132 140 143 147 149 154 156 157 160 160 155 154 154 152 151 150 149 147 147 149 148 148 147 147 149 151 151 152 153 153 155 156 158 161 163 162 162 163 162 163 164 166 167 170 175 180 187 192 197 200 207 217 242 266 287 302 307 312 320 327 333 330 323 313 309 311 312 314
116 176 95 93 166 143 139 132 142 126 136 178 175 164 140 149 135 134 121 115 129 133 149 134 146 136 86 104 113 142 150 150 152 152 154 155 156 159 159 157 155 156 155 154 153 152 151 152 153 152 153 152 151 152 154 154 155 156 157 159 161 163 164 166 167 167 167 166 166 168 170 172 176 182 187 193 199 204 212 224 238 261 277 296 307 311 316 324 327 325 316 305 306 310 312 315 316
146 179 112 108 117 124 135 124 152 148 176 203 161 156 157 161 146 140 122 119 131 150 133 127 133 104 98 132 131 177 165 158 156 154 154 152 157 158 159 159 159 160 160 159 157 156 156 156 157 155 157 158 157 158 158 159 160 162 163 165 168 169 171 172 173 172 171 172 174 174 175 178 182 187 195 201 208 216 226 239 255 268 283 298 299 304 306 316 321 313 309 309 315 318 318 321 319
171 126 97 116 120 122 158 155 159 159 189 188 153 154 132 51 133 131 125 129 122 145 123 121 130 99 148 172 167 186 165 161 159 153 152 151 156 158 161 163 161 164 164 163 161 161 161 160 161 160 163 163 162 163 163 165 165 167 168 168 170 172 174 174 173 174 176 179 181 180 181 184 188 195 203 214 222 230 242 253 266 281 293 295 294 296 296 314 324 310 312 316 319 320 322 327 321
165 75 74 100 151 163 186 159 138 152 198 170 152 141 97 83 132 110 110 116 120 151 131 132 183 131 163 176 160 163 159 161 159 154 153 150 155 159 164 166 165 167 169 170 167 167 166 165 166 165 168 167 167 169 168 169 169 172 171 170 171 172 174 173 174 178 179 183 184 183 188 192 197 206 215 227 235 241 254 266 280 296 300 298 301 301 304 325 327 312 316 319 321 324 329 331 322
117 73 64 109 180 185 174 167 162 166 176 152 160 153 123 134 142 83 83 96 126 144 86 98 350 114 144 145 144 151 155 158 157 155 153 152 156 159 165 170 171 174 177 178 175 174 172 171 172 171 173 173 173 175 174 174 173 175 174 174 175 176 178 177 179 182 182 184 186 190 195 203 210 214 220 230 241 253 269 284 294 301 303 303 304 305 313 329 328 319 322 324 328 334 336 339 340
136 136 152 196 199 196 178 177 177 150 153 162 170 164 147 148 141 115 99 96 116 107 71 83 53 72 115 129 140 148 154 156 159 158 158 158 160 161 167 174 178 180 182 184 183 181 178 177 178 177 178 180 180 180 180 179 176 179 180 181 182 182 183 183 185 186 188 190 194 200 204 213 218 219 226 235 251 267 280 290 296 301 304 302 300 306 316 323 325 323 329 330 332 340 343 348 351
172 135 141 221 199 213 197 168 168 153 156 161 162 157 151 147 141 139 129 132 130 103 92 94 85 95 115 130 141 150 155 158 163 163 164 166 168 169 171 177 182 184 185 188 188 187 185 183 184 184 184 186 187 186 185 184 182 182 185 187 188 188 188 189 192 193 196 199 202 208 213 218 222 227 239 248 262 271 276 282 292 300 300 296 294 301 313 318 320 320 324 326 328 339 343 341 337
187 124 156 247 195 203 209 165 174 163 151 148 152 150 139 155 149 143 141 142 148 144 147 137 131 141 139 140 147 154 159 163 166 167 170 173 176 176 176 181 185 188 189 191 192 191 191 190 190 190 190 192 193 192 191 191 188 187 190 192 193 195 195 196 201 204 205 208 209 214 220 224 231 238 245 254 263 267 272 282 292 297 298 295 292 294 304 311 311 308 309 312 319 330 330 323 321
172 147 188 235 180 180 193 172 170 155 151 147 147 143 142 173 159 143 141 137 174 193 185 167 155 155 152 151 154 159 162 165 169 172 174 176 181 182 184 186 188 192 191 193 196 195 196 196 195 195 196 197 197 198 197 197 195 194 197 198 199 202 204 206 209 213 216 219 219 222 226 232 239 244 250 255 261 266 276 288 294 297 299 295 291 295 306 308 302 298 298 301 304 320 334 330 326
161 207 213 203 160 173 185 169 158 149 148 140 146 155 155 163 161 161 154 151 200 201 192 171 155 156 158 156 157 162 165 168 173 176 178 181 183 184 188 190 191 195 195 198 200 199 200 200 199 199 200 201 201 203 203 204 203 202 203 204 205 208 212 215 216 219 222 225 229 233 237 240 243 247 253 257 260 265 276 288 293 297 299 295 291 300 311 309 302 299 297 294 285 315 3 354 344
196 260 238 195 173 164 160 158 153 145 146 153 161 158 144 149 166 178 169 169 218 172 161 160 154 153 154 155 159 166 170 173 177 180 184 185 185 187 188 190 192 195 198 202 203 202 203 203 203 202 202 203 204 206 208 209 209 209 209 209 211 212 216 221 221 220 222 225 231 237 242 246 248 251 255 258 261 265 276 286 291 294 294 293 291 297 309 311 307 301 295 288 282 300 345 354 350
209 251 233 198 191 166 154 155 156 154 160 164 153 141 154 166 167 179 191 260 93 127 134 145 148 148 151 157 165 171 174 177 181 184 188 189 190 191 189 191 193 195 199 203 205 205 206 205 205 205 205 206 206 208 211 212 213 214 215 216 216 218 221 224 223 221 222 227 233 238 244 248 251 253 255 258 262 265 275 284 289 288 288 289 287 291 305 314 313 305 294 288 293 309 326 341 344
215 236 239 195 186 165 156 151 155 160 161 150 139 152 170 172 148 164 192 74 112 124 128 140 144 149 156 163 168 171 176 180 183 186 189 193 194 192 192 195 194 196 200 203 205 207 208 208 207 208 207 208 209 210 213 215 217 218 220 220 220 222 225 225 225 226 226 230 235 240 244 247 250 252 254 258 262 266 274 281 285 285 286 287 286 290 300 309 312 308 301 295 301 317 325 330 335
220 219 210 178 172 158 149 145 153 156 149 139 143 156 164 138 116 145 191 122 125 126 132 145 149 156 164 168 171 173 177 182 184 186 189 193 193 194 197 198 197 199 202 204 206 208 210 210 210 210 209 210 212 213 216 218 220 222 223 223 224 226 228 227 228 231 232 234 236 241 244 247 251 253 256 259 262 266 273 278 282 285 286 286 287 290 296 304 308 308 306 304 306 315 321 323 326
209 176 133 139 142 143 141 138 145 140 146 155 150 151 153 142 131 166 202 141 135 132 140 153 156 163 170 171 175 175 180 186 187 185 186 190 193 196 197 199 200 202 203 205 207 210 211 212 213 213 212 213 215 217 219 221 223 224 225 226 227 229 229 229 230 232 235 237 240 243 246 250 254 256 257 258 260 264 271 278 281 284 286 287 287 288 294 300 305 308 308 308 307 308 315 320 322
133 121 72 73 102 109 128 134 143 134 142 159 137 120 133 154 199 193 169 150 144 143 149 161 164 168 172 175 177 177 185 189 188 187 188 192 195 197 198 199 200 202 204 206 208 210 211 214 215 216 216 216 218 221 222 224 226 227 228 229 229 230 231 231 232 234 235 239 244 249 252 253 255 257 257 258 261 265 270 277 281 282 286 289 290 290 294 300 306 310 308 306 304 305 311 317 321
119 121 89 70 80 96 131 130 147 141 136 146 119 92 150 199 246 178 153 151 147 147 155 164 170 171 172 177 180 181 188 188 190 195 196 196 198 200 200 201 201 202 205 208 209 210 212 215 215 217 218 218 220 222 224 226 228 229 230 231 230 231 232 233 234 235 238 242 249 254 257 256 255 256 259 262 264 268 271 273 276 278 284 291 293 293 294 299 305 308 308 305 304 305 310 319 329
96 90 98 101 76 117 182 123 140 132 144 156 128 116 216 220 246 161 152 151 145 151 161 167 172 174 175 180 183 188 191 190 194 199 200 199 200 203 204 204 204 204 206 207 209 211 213 215 215 216 218 220 221 222 225 227 229 230 232 233 233 233 234 235 236 239 243 249 254 258 260 260 258 257 261 265 266 267 267 268 273 277 284 291 292 289 287 291 298 305 310 308 307 309 315 330 341
104 84 77 106 123 182 219 165 144 128 170 174 122 177 215 226 229 168 161 157 152 160 168 171 175 176 178 183 186 193 196 197 199 200 201 201 201 204 207 207 206 207 207 206 209 212 213 215 216 216 217 220 221 223 224 227 230 231 233 234 235 237 238 240 242 245 250 255 260 262 263 263 261 260 261 264 264 263 264 266 270 276 284 287 283 277 279 285 294 306 314 314 314 314 319 334 346
113 120 104 151 148 185 234 214 166 147 181 196 96 203 226 227 200 174 168 165 160 165 171 175 178 180 182 185 190 195 201 202 203 203 203 202 202 204 207 208 208 208 209 208 209 212 214 216 216 217 218 219 221 222 223 226 229 231 233 235 237 241 245 247 248 251 256 260 263 263 262 262 261 259 258 261 263 262 264 265 264 272 278 277 275 273 278 288 298 309 316 316 314 315 324 336 347
306 117 155 177 144 178 224 224 200 162 170 196 195 176 221 229 187 176 173 171 168 169 174 179 181 185 186 186 191 194 199 203 207 208 205 203 203 205 207 209 209 210 212 212 211 212 214 216 217 219 219 219 220 221 223 226 228 230 232 234 238 242 246 249 249 251 255 257 260 262 259 257 257 255 256 259 260 261 263 259 258 267 267 268 275 282 290 292 294 304 310 308 305 309 319 328 339
267 58 135 174 154 176 187 178 209 175 170 195 175 155 197 195 174 176 179 175 173 174 179 183 183 188 190 190 193 193 197 202 208 209 206 205 205 207 208 209 210 211 212 214 215 215 216 217 218 219 220 221 221 221 223 225 228 230 232 235 239 243 246 248 248 249 251 252 256 259 256 254 253 251 252 253 253 255 255 253 257 262 257 266 281 289 294 291 290 296 299 297 295 301 308 317 330
190 171 141 157 170 190 195 185 186 172 177 196 170 175 202 168 166 178 184 178 178 182 183 186 187 190 192 193 197 197 199 205 208 206 206 206 206 207 209 210 211 210 211 213 216 217 217 218 219 220 221 222 223 223 224 226 230 232 233 237 240 243 245 245 247 247 247 248 251 253 253 251 249 248 252 255 255 247 237 241 247 243 247 260 278 287 291 291 288 284 289 295 294 297 299 309 321
179 181 158 163 184 208 204 198 185 168 173 198 191 194 183 164 175 183 185 182 184 187 184 188 191 192 194 196 202 202 203 210 209 205 205 206 206 207 208 209 209 210 210 211 213 215 215 216 218 219 221 222 224 225 225 226 228 231 233 236 239 241 242 244 246 246 247 247 247 247 249 251 251 254 257 258 255 236 213 213 214 215 227 243 263 281 289 285 274 267 275 289 295 296 297 307 318
173 166 157 171 188 216 212 258 231 165 168 206 187 169 180 176 182 185 182 182 188 193 191 194 193 193 197 198 204 206 208 214 207 204 206 205 206 207 206 206 207 207 209 209 210 212 213 215 216 218 221 222 223 224 224 224 224 225 226 230 234 237 239 242 242 242 243 243 242 244 248 252 256 262 256 243 234 212 196 200 204 210 227 244 257 267 268 255 257 261 272 284 294 298 301 320 330
168 160 156 177 199 220 217 278 244 173 172 213 158 149 202 193 186 184 179 184 194 197 194 196 196 195 198 200 205 208 213 215 204 203 206 205 206 205 204 203 203 204 206 207 209 211 213 214 215 219 221 222 223 224 223 222 223 223 224 227 231 234 237 239 238 238 239 238 240 243 245 248 255 260 239 214 204 195 195 200 207 228 240 247 251 255 247 239 247 254 269 280 289 295 301 334 342
159 146 145 185 209 197 198 169 183 181 195 239 151 150 227 213 189 189 189 196 201 199 196 197 194 195 201 203 206 208 211 212 205 203 203 204 205 203 201 201 202 204 205 206 208 210 212 213 216 219 221 222 223 223 222 223 225 226 228 232 233 235 238 239 238 239 238 239 242 243 243 245 246 237 210 196 192 191 197 203 215 232 241 248 251 254 243 233 240 243 259 276 286 291 296 3 19
151 137 145 197 201 177 216 201 159 163 177 181 136 109 328 179 186 210 209 210 212 204 205 204 198 201 204 204 204 205 207 208 206 206 202 203 203 201 200 201 202 203 203 204 206 208 210 213 217 219 220 223 223 222 223 225 226 226 229 233 235 235 238 241 240 239 238 238 240 239 236 233 225 208 196 195 194 196 203 207 216 229 236 245 248 247 237 225 226 234 252 266 276 286 300 30 49
182 172 156 173 187 187 202 159 140 112 34 118 112 54 317 194 187 216 213 214 222 210 206 211 212 212 209 206 206 207 207 206 204 205 203 201 201 201 201 201 201 200 201 203 205 207 210 214 217 219 221 223 223 223 223 223 222 221 221 222 224 226 229 233 232 231 231 230 232 230 225 218 208 199 196 198 199 201 204 204 212 225 229 235 238 235 227 217 215 223 241 252 264 280 309 347 17
198 212 179 171 178 180 148 131 131 127 238 224 131 103 287 229 199 210 200 205 215 209 204 211 215 213 211 209 210 211 210 207 204 204 202 200 202 202 202 202 200 200 202 204 205 207 210 214 217 219 221 222 222 223 222 220 218 216 214 210 208 209 212 218 224 227 225 222 222 219 213 206 201 199 200 200 199 197 196 200 210 220 226 228 231 233 229 224 225 234 242 238 260 276 274 312 8
193 223 187 170 161 152 146 143 141 158 211 217 171 185 268 285 225 210 197 205 213 211 212 214 213 211 208 208 210 210 209 208 207 206 201 200 201 200 201 202 201 203 204 205 205 207 209 213 216 219 221 221 221 222 220 219 217 215 215 213 213 213 213 220 228 231 228 223 219 211 205 200 198 200 200 197 194 192 192 200 207 213 219 223 227 237 242 242 243 248 243 220 178 135 123 88 359
214 216 169 155 148 154 160 156 163 178 145 139 179 175 254 279 249 204 190 205 219 221 222 218 214 212 208 208 210 208 207 206 205 205 203 200 201 200 201 202 203 205 205 204 204 206 209 213 216 219 220 220 221 221 220 219 217 217 217 218 221 223 226 232 235 231 224 220 216 210 204 200 197 195 194 193 192 193 195 199 203 208 217 224 228 232 233 230 229 231 227 218 221 238 18 2 8
227 192 152 148 153 164 167 167 182 163 114 189 229 160 183 262 279 194 181 201 221 225 224 220 214 210 207 207 210 209 207 205 203 204 204 202 202 203 203 203 205 206 205 204 205 207 210 213 216 219 220 220 221 220 220 220 220 220 219 221 223 228 233 237 236 228 218 215 213 209 202 196 191 188 189 194 196 197 200 201 202 208 219 224 223 221 217 212 212 214 214 213 215 214 227 317 34
215 146 109 90 108 139 158 169 165 103 127 214 220 182 199 258 273 178 173 204 223 225 225 220 214 210 207 207 208 208 206 203 204 205 206 206 206 205 204 203 205 206 205 206 206 207 210 212 215 217 219 219 220 220 219 219 220 220 221 222 225 228 230 230 227 219 212 209 207 201 195 190 186 185 189 196 202 202 201 201 200 206 215 214 211 210 206 203 203 202 199 191 186 190 201 252 37
143 112 86 64 56 65 79 83 95 98 197 236 212 191 197 249 261 185 182 208 213 216 224 221 212 209 209 209 207 205 202 199 201 204 206 208 208 206 203 203 205 206 206 206 206 207 208 211 213 216 219 219 219 219 218 219 220 220 222 224 226 228 227 223 216 207 202 201 198 193 189 188 187 188 191 196 201 200 197 199 200 202 203 199 198 195 189 186 185 181 175 170 173 189 196 188 222
129 107 105 110 32 34 42 10 52 128 239 251 218 191 192 238 254 213 213 219 211 209 218 214 207 206 208 209 206 202 199 196 198 201 204 204 203 202 201 203 206 205 205 206 206 206 207 209 212 214 217 218 218 218 218 219 220 221 223 224 226 227 225 220 212 204 200 197 195 192 189 189 189 191 193 194 197 196 195 196 194 193 193 190 189 183 175 172 172 173 173 177 186 196 198 195 194
132 121 114 136 254 8 119 270 106 182 241 251 187 161 189 244 249 237 232 236 226 218 220 214 204 202 204 206 203 199 195 195 196 197 200 198 194 196 197 201 203 203 204 205 206 206 207 209 210 213 216 217 217 217 217 218 220 222 223 223 225 224 223 220 214 207 203 199 197 194 192 192 192 191 191 193 196 194 194 195 193 195 197 193 193 192 188 186 187 188 189 192 196 200 205 208 204
153 152 142 153 170 167 209 234 16 214 254 285 146 155 202 269 260 242 234 235 229 225 228 222 207 201 203 203 198 194 195 194 195 195 196 196 194 194 197 199 201 202 204 205 204 205 206 208 210 212 216 216 216 216 216 218 221 222 222 223 223 221 220 218 214 210 206 203 200 198 198 197 195 194 192 194 197 195 195 198 201 204 202 197 201 204 204 204 203 200 201 205 210 216 225 233 236
181 167 146 162 165 169 209 202 182 208 239 329 115 159 191 209 247 242 234 237 230 228 239 237 221 199 194 196 193 193 197 195 195 197 195 194 194 194 196 198 200 202 204 204 204 205 206 208 210 211 214 215 215 215 215 217 220 221 221 222 221 220 218 216 213 212 209 205 202 202 202 202 200 199 197 199 202 200 198 200 203 207 207 207 209 208 207 209 211 215 223 233 241 250 257 261 263
211 150 133 187 184 163 187 187 180 177 146 118 174 208 216 211 277 291 282 278 242 224 234 230 217 184 164 181 192 192 196 196 196 197 195 195 194 195 196 198 201 203 203 204 205 205 206 208 210 211 215 216 215 214 214 217 219 220 221 221 219 217 216 213 210 211 209 206 204 203 202 202 202 203 203 204 206 204 201 201 206 210 212 217 220 219 217 217 222 231 244 255 257 261 265 266 269
182 148 178 211 171 142 156 224 171 125 179 245 191 237 281 310 298 293 287 286 264 233 223 219 209 173 167 187 192 190 195 196 197 196 194 193 192 195 197 197 199 201 203 205 207 207 208 209 210 212 214 215 215 215 214 215 217 219 220 219 217 215 213 212 211 209 207 205 204 203 203 203 203 203 204 206 208 206 204 206 213 217 218 224 230 232 234 233 237 242 251 260 260 262 266 266 268
137 181 200 177 107 109 123 191 23 77 225 263 188 206 235 152 281 298 280 246 254 246 226 217 191 167 186 197 191 191 195 195 196 195 194 193 192 194 196 197 199 200 203 206 209 210 210 211 211 212 213 214 215 215 213 213 215 217 218 217 215 215 215 214 213 210 205 203 202 202 205 205 204 204 206 208 209 207 208 214 222 226 225 229 233 236 239 242 248 251 254 260 263 267 271 271 272
147 182 176 139 145 203 138 171 188 161 215 264 283 246 232 197 226 280 253 230 237 240 227 206 183 184 199 200 191 192 192 191 194 194 195 195 194 194 196 198 200 201 204 208 210 211 212 214 214 214 216 216 216 214 211 212 215 215 215 214 214 216 217 216 214 211 207 204 203 204 207 208 206 208 210 211 210 211 217 225 229 230 228 231 236 239 242 246 252 254 254 258 262 268 273 275 277
74 113 152 146 164 177 178 169 169 186 205 228 274 283 254 228 217 215 223 229 229 225 216 208 201 199 202 196 189 190 189 191 192 193 197 196 194 196 197 199 200 202 206 209 210 210 212 215 215 216 218 218 216 214 212 212 212 212 211 212 214 216 217 215 212 210 209 208 208 211 212 209 207 211 214 215 216 219 224 228 227 227 229 234 238 241 246 250 253 254 255 259 265 270 276 279 282
141 157 177 181 129 136 188 182 138 156 175 178 205 241 255 246 211 199 219 229 222 211 210 216 212 206 203 193 185 188 190 193 192 192 197 195 193 197 199 201 202 203 206 208 209 210 212 214 214 216 217 216 215 214 213 211 208 205 205 210 215 217 216 214 210 207 207 208 214 220 216 211 210 214 217 218 220 219 220 222 224 227 232 237 241 245 250 253 253 252 254 261 267 273 279 283 284
166 184 183 175 163 133 184 241 231 128 161 175 184 218 255 247 200 199 218 221 215 209 207 214 217 207 200 191 188 191 190 192 193 194 195 193 193 197 200 202 203 204 206 208 209 210 212 213 214 215 215 215 215 214 212 208 199 196 202 208 215 217 214 210 204 203 206 209 217 220 217 214 215 218 220 220 219 216 217 221 225 230 235 238 242 247 251 252 250 251 255 262 270 278 283 284 283